User: anonymous   Login
Location: �perlecques
(50.8057°N, 2.1521°E)
Time: 14:17:59
(UTC+00:00)
Language:

N. Korean satellite - Orbit

View from above orbital plane
View from above orbital plane
View from above satellite
View from above satellite

Ground track
Ground track

The orbit data is extracted from the following two-line orbital elements,

1 39026U 12072A   21215.23608519  .00002286  00000-0  78848-4 0  9994
2 39026  97.2459 206.9735 0034253 214.9859 144.9132 15.30468576480242
Epoch (UTC): 03 August 2021 05:39:57
Eccentricity: 0.0034253
inclination: 97.2459°
perigee height: 451 km
apogee height: 498 km
right ascension of ascending node: 206.9735°
argument of perigee: 214.9859°
revolutions per day: 15.30468576
mean anomaly at epoch: 144.9132°
orbit number at epoch: 48024

The dashed part of the orbit path shows where the satellite is in the earth's shadow,  

DLR